Weather History for KBFF - July, 2013

Change the Weather History Date:

Friday, July 26, 2013

  Actual Average Record
Temperature  
Mean Temperature 72 °F 75 °F  
Max Temperature 86 °F 90 °F 104 °F (1935)
Min Temperature 58 °F 59 °F 47 °F (1971)
Degree Days  
Heating Degree Days 0 0  
Month to date heating degree days 0 1  
Since 1 June heating degree days 21 61  
Since 1 July heating degree days 0 1  
Cooling Degree Days 7 10  
Month to date cooling degree days 290 240  
Year to date cooling degree days 539 389  
Since 1 June cooling degree days 485 366  
Growing Degree Days 22 (Base 50)    
Moisture  
Dew Point 52 °F    
Average Humidity 54    
Maximum Humidity 80    
Minimum Humidity 27    
Precipitation  
Precipitation 0.00 in 0.05 in 1.28 in (1979)
Month to date precipitation 0.75 1.56  
Year to date precipitation 6.93 10.73  
Snow  
Snow 0.00 in 0.00 in - ()
Month to date snowfall 0.0 0.0  
Since 1 July snowfall 0.0 0.0  
Snow Depth 0.00 in    
Sea Level Pressure  
Sea Level Pressure 30.10 in    
Wind  
Wind Speed 9 mph (East)    
Max Wind Speed 33 mph    
Max Gust Speed 37 mph    
Visibility 10 miles    
Events      
T = Trace of Precipitation, MM = Missing Value Source: NWS Daily Summary

Daily Weather History Graph

Daily Weather History Graph

Search for Another Location

Airport or City:

Trip Planner

Search our weather history database for the weather conditions in past years. The results will help you decide how hot, cold, wet, or windy it might be!

Date:

Astronomy

Jul. 26, 2013 Rise Set
Actual Time 5:42 AM MDT 8:18 PM MDT
Civil Twilight 5:10 AM MDT 8:50 PM MDT
Nautical Twilight 4:30 AM MDT 9:30 PM MDT
Astronomical Twilight 3:44 AM MDT 10:15 PM MDT
Moon 10:28 PM MDT (7/26) 10:26 AM MDT (7/26)
Length of Visible Light 15h 40m
Length of Day
14h 36m
Waning Gibbous, 79% of the Moon is Illuminated
Jul 26
Waning Gibbous
Jul 29
Last Quarter
Aug 6
New
Aug 14
First Quarter
Aug 20
Full

Hourly Weather History & Observations

Time (MDT) Temp. Heat Index Dew Point Humidity Pressure Visibility Wind Dir Wind Speed Gust Speed Precip Events Conditions
12:53 AM 64.9 °F - 55.0 °F 70% 30.09 in 10.0 mi East 3.5 mph - N/A   Clear
1:53 AM 64.9 °F - 55.9 °F 73% 30.09 in 10.0 mi Calm Calm - N/A   Clear
2:53 AM 63.0 °F - 55.9 °F 78% 30.10 in 10.0 mi NE 8.1 mph 170.3 mph N/A   Squalls
3:53 AM 62.1 °F - 54.0 °F 75% 30.11 in 10.0 mi NNE 9.2 mph - N/A   Partly Cloudy
4:53 AM 60.1 °F - 53.1 °F 78% 30.12 in 10.0 mi NNW 3.5 mph - N/A   Clear
5:53 AM 57.9 °F - 52.0 °F 81% 30.12 in 10.0 mi Calm Calm - N/A   Scattered Clouds
6:53 AM 62.1 °F - 55.0 °F 78% 30.14 in 10.0 mi ENE 3.5 mph - N/A   Clear
7:53 AM 64.9 °F - 55.0 °F 70% 30.18 in 10.0 mi ENE 13.8 mph - N/A   Mostly Cloudy
8:53 AM 61.0 °F - 48.0 °F 62% 30.25 in 10.0 mi NE 21.9 mph 33.4 mph N/A   Scattered Clouds
9:53 AM 68.0 °F - 46.9 °F 47% 30.21 in 10.0 mi ESE 10.4 mph - N/A   Overcast
10:53 AM 70.0 °F - 48.9 °F 47% 30.19 in 10.0 mi SSE 12.7 mph - N/A   Clear
11:53 AM 75.9 °F - 48.9 °F 38% 30.16 in 10.0 mi SE 8.1 mph 16.1 mph N/A   Clear
12:53 PM 79.0 °F - 48.0 °F 34% 30.14 in 10.0 mi ESE 10.4 mph - N/A   Clear
1:53 PM 82.0 °F - 50.0 °F 33% 30.09 in 10.0 mi South 10.4 mph - N/A   Clear
2:53 PM 82.9 °F - 50.0 °F 32% 30.08 in 10.0 mi Variable 4.6 mph - N/A   Clear
3:53 PM 86.0 °F - 48.9 °F 28% 30.05 in 10.0 mi SE 11.5 mph 17.3 mph N/A   Clear
4:53 PM 84.9 °F - 51.1 °F 31% 30.03 in 10.0 mi East 11.5 mph - N/A   Clear
5:53 PM 84.9 °F - 52.0 °F 32% 30.01 in 10.0 mi SE 13.8 mph 20.7 mph N/A   Clear
6:53 PM 82.0 °F 81.3 °F 54.0 °F 38% 30.01 in 10.0 mi ESE 10.4 mph - N/A   Clear
7:53 PM 77.0 °F - 55.0 °F 47% 30.02 in 10.0 mi SE 8.1 mph - N/A   Clear
8:53 PM 72.0 °F - 54.0 °F 53% 30.05 in 10.0 mi East 12.7 mph - N/A   Clear
9:53 PM 68.0 °F - 55.0 °F 63% 30.06 in 10.0 mi East 9.2 mph - N/A   Clear
10:53 PM 66.0 °F - 53.1 °F 63% 30.07 in 10.0 mi ESE 10.4 mph - N/A   Clear
11:53 PM 62.1 °F - 53.1 °F 72% 30.08 in 10.0 mi East 5.8 mph - N/A   Clear